EW6987 Weather Reports


time (UTC)temp
C
wind
direction
speed
KPH
gust
KPH
rain 1hr
cm
rain 24hr
cm
rain mn
cm
humidity
%
barometer
mb
20260504081552 11 212 12.9 24.1 0.00 0.00 0.00 65 1013.3
20260504044522 11 178 11.3 24.1 0.00 0.00 0.00 65 1015.9
20260504043033 11 224 9.7 22.5 0.00 0.00 0.00 67 1016.0
20260504041515 11 166 11.3 20.9 0.00 0.00 0.00 68 1016.2
20260504040013 11 145 12.9 20.9 0.00 0.00 0.00 67 1016.4
20260504034510 11 150 8.0 17.7 0.00 0.00 0.00 68 1016.6
20260504033009 11 183 4.8 19.3 0.00 0.00 0.00 69 1016.6
20260504031507 11 142 9.7 20.9 0.00 0.00 0.00 68 1016.8
20260504030014 11 109 8.0 17.7 0.00 0.00 0.00 69 1017.0
20260504024508 11 132 4.8 19.3 0.00 0.00 0.00 68 1017.1
20260504023004 11 191 9.7 19.3 0.00 0.00 0.00 67 1017.2
20260504021504 11 188 9.7 19.3 0.00 0.00 0.00 66 1017.2
20260504020004 11 196 9.7 17.7 0.00 0.00 0.00 66 1017.3
20260504014500 11 96 4.8 19.3 0.00 0.00 0.00 66 1017.3
20260504013119 11 166 8.0 17.7 0.00 0.00 0.00 66 1017.4
20260504011601 12 134 8.0 24.1 0.00 0.00 0.00 64 1017.3
20260504010058 12 192 4.8 20.9 0.00 0.00 0.00 65 1017.4
20260504004635 12 214 12.9 25.7 0.00 0.00 0.00 63 1017.5
20260504003101 12 235 3.2 30.6 0.00 0.00 0.00 66 1017.5
20260504001622 12 285 6.4 27.4 0.00 0.00 0.00 64 1017.4
20260504000105 13 249 8.0 25.7 0.00 0.00 0.00 61 1017.2
20260503234657 14 276 6.4 24.1 0.00 0.00 0.00 55 1017.1
20260503233100 15 214 9.7 25.7 0.00 0.00 0.00 43 1016.7
20260503231553 15 125 12.9 32.2 0.00 0.00 0.00 42 1016.7
20260503230109 15 138 11.3 29.0 0.00 0.00 0.00 43 1016.9
20260503224551 16 214 11.3 25.7 0.00 0.00 0.00 42 1016.9
20260503223050 16 224 14.5 32.2 0.00 0.00 0.00 40 1017.0
20260503221556 16 233 11.3 29.0 0.00 0.00 0.00 39 1017.0
20260503220051 17 225 12.9 24.1 0.00 0.00 0.00 39 1017.1
20260503214554 16 227 11.3 30.6 0.00 0.00 0.00 39 1017.2
20260503213046 17 195 8.0 29.0 0.00 0.00 0.00 39 1017.2
20260503211544 17 200 9.7 29.0 0.00 0.00 0.00 41 1017.2
20260503210045 17 197 14.5 37.0 0.00 0.00 0.00 38 1017.3
20260503204541 17 235 12.9 32.2 0.00 0.00 0.00 38 1017.4
20260503203057 17 155 16.1 32.2 0.00 0.00 0.00 39 1017.7
20260503201540 17 202 9.7 27.4 0.00 0.00 0.00 41 1017.7
20260503200038 17 199 11.3 27.4 0.00 0.00 0.00 40 1017.9
20260503194542 17 194 14.5 29.0 0.00 0.00 0.00 37 1018.0
20260503193038 17 228 11.3 38.6 0.00 0.00 0.00 40 1018.2
20260503191540 17 176 14.5 30.6 0.00 0.00 0.00 39 1018.5
20260503190039 17 198 16.1 29.0 0.00 0.00 0.00 39 1018.7
20260503184530 17 237 9.7 32.2 0.00 0.00 0.00 40 1019.0
20260503183029 17 183 14.5 30.6 0.00 0.00 0.00 38 1019.1
20260503181525 16 168 11.3 27.4 0.00 0.00 0.00 41 1019.4
20260503180023 16 153 9.7 37.0 0.00 0.00 0.00 39 1019.7
20260503174521 17 276 9.7 29.0 0.00 0.00 0.00 42 1019.6
20260503173117 16 224 16.1 33.8 0.00 0.00 0.00 43 1019.8
20260503171528 16 209 8.0 27.4 0.00 0.00 0.00 48 1020.1
20260503170110 16 260 6.4 32.2 0.00 0.00 0.00 48 1020.3